Regional Weather Roundup
Issued by NWS

Home | Current Version | Previous Version | Graphics & Text | Print | Product List | Glossary On
Versions: 1 2 3 4 5 6 7 8 9 10 11 12 13 14 15 16 17 18 19 20 21 22 23 24 25 26 27 28 29 30 31 32 33 34 35 36 37 38 39 40 41 42 43 44 45 46 47 48 49 50
000
ASUS45 KTFX 261804
RWRMT
MONTANA HOURLY WEATHER ROUNDUP
NATIONAL WEATHER SERVICE GREAT FALLS MT
1204 PM MDT SAT JUL 26 2014

NOTE: "FAIR" INDICATES FEW OR NO CLOUDS BELOW 12000 FEET WITH NO
SIGNIFICANT WEATHER AND/OR OBSTRUCTIONS TO VISIBILITY.

* THESE STATIONS ARE NOT UNDER NWS QUALITY CONTROL. THEY DO NOT
   REPORT WEATHER SUCH AS PRECIPITATION OR FOG.

MTZ001>007-043-261900-
WEST OF THE DIVIDE
CITY           SKY/WX    TMP DP  RH WIND       PRES   REMARKS
KALISPELL      SUNNY     72  45  38 VRB6      30.19F
MISSOULA       SUNNY     72  39  30 VRB3      30.22F
BUTTE          SUNNY     70  30  23 VRB3      30.29S
MULLAN PASS    SUNNY     61  37  41 CALM      30.32R
* ESSEX        N/A       69  41  36 SE4G11     N/A
* LINCOLN      N/A       68  40  36 W5G13      N/A
* LOOKOUT PASS N/A       67  40  37 SE4        N/A
* POLSON       N/A       74  46  37 E4         N/A
* SEELEY LAKE  N/A       70  38  31 SW4G10     N/A
* THOMP F APT  SUNNY     71  28  20 NW4G13     N/A
$$

MTZ008-052>055-261900-
SOUTHWEST MONTANA
CITY           SKY/WX    TMP DP  RH WIND       PRES   REMARKS
BOZEMAN        SUNNY     72  39  30 VRB6      30.23F
DILLON         SUNNY     73  30  20 VRB3      30.25S
W YELLOWSTONE  SUNNY     66  27  23 NW3       30.33S
* THREE FORKS  SUNNY     72  45  38 N/A        N/A
* BOULDER HILL N/A       68  35  30 S4         N/A
* MONIDA PASS  N/A       66  24  20 W7G15      N/A
* RAYNOLDS PAS N/A       67  65  93 N4G10      N/A
* WHITEHALL    N/A       74  39  28 S5         N/A
* WISE RIVER   N/A       68  35  30 NW4        N/A
$$

MTZ009>010-012-014-046-048-049-054-261900-
EAST SLOPES AND CENTRAL MONTANA
CITY           SKY/WX    TMP DP  RH WIND       PRES   REMARKS
CUT BANK       SUNNY     68  43  40 N6        30.20R
GREAT FALLS    SUNNY     72  37  28 NW7       30.18S
HELENA         SUNNY     79  30  17 W10       30.19S
* CONRAD       SUNNY     66  48  52 N/A        N/A
* DEARBORN     N/A       76  34  22 S2         N/A
* EAST GLACIER N/A       66  38  36 VRB9G17    N/A
* MONARCH      N/A       65  35  33 NW12G19    N/A
* PENDROY      N/A       67  45  45 E4         N/A
* SAINT MARY   N/A       66  39  37 SW9G19     N/A
* SWEET GRASS  N/A       63  44  50 N10G17     N/A
$$

MTZ011-013-016-021-035-040-045-047-050-051-261900-
NORTH CENTRAL MONTANA
CITY           SKY/WX    TMP DP  RH WIND       PRES   REMARKS
HAVRE          PTCLDY    73  45  37 NW17G26   30.13S
LEWISTOWN      SUNNY     68  43  40 NW9       30.20S
* CHESTER      N/A       67  44  44 W8G16      N/A
* DENTON       N/A       69  41  36 NW6G20     N/A
* JUDITH GAP   N/A       65  42  43 VRB15G20    N/A
* LOMA         N/A       70  42  36 W11G17     N/A
$$

MTZ017>020-022>027-061-062-261900-
NORTHEAST MONTANA
CITY           SKY/WX    TMP DP  RH WIND       PRES   REMARKS
GLASGOW        PTCLDY    72  50  46 NW22G32   30.04S
GLENDIVE       PTCLDY    73  48  41 W30G36    30.04R
JORDAN         SUNNY     75  41  30 NW25G38   30.08R
SIDNEY         CLOUDY    70  48  46 W18G28    30.00R
WOLF POINT     PTCLDY    73  48  41 W25G35    30.01R
* BEAVER HILL  N/A       69  48  47 W31G41     N/A
* CIRCLE       N/A       68  51  55 W13G23     N/A
* LINDSAY DVD  N/A       67  49  53 W24G37     N/A
* NAVAJO       N/A       64  53  68 NW26G34    N/A
$$

MTZ028>042-056>058-261900-
SOUTHCENTRAL AND SOUTHEAST MONTANA
CITY           SKY/WX    TMP DP  RH WIND       PRES   REMARKS
BAKER          SUNNY     75  43  32 W26G37    30.06R
BILLINGS       SUNNY     79  37  22 VRB5      30.15S
LIVINGSTON     SUNNY     79  27  15 NW13      30.20S
MILES CITY     SUNNY     79  41  26 NW23G32   30.08R
* LAUREL APT   SUNNY     75  39  27 N/A        N/A
* ROUNDUP APT  SUNNY     75  37  25 NW10G15    N/A
* ALZADA       N/A       74  43  33 SW9G16     N/A
* HYSHAM       N/A       74  43  33 NW6G16     N/A
* LAME DEER    N/A       68  43  40 W8G20      N/A
* REED POINT   N/A       80  39  23 W19G24     N/A
* ROSCOE HILL  N/A       73  35  25 N3         N/A
$$

REGIONAL REPORTS...DAKOTAS
CITY           SKY/WX    TMP DP  RH WIND       PRES   REMARKS
WILLISTON      CLOUDY    68  50  53 W25G31    29.93R
DICKINSON      SUNNY     70  52  53 W23G36    29.97R
CROSBY         CLOUDY    64  57  78 NW29G36   29.87R
TIOGA          CLOUDY    63  61  93 W20G30    29.92R
WATFORD CITY   PTSUNNY   66  50  56 W23G31    29.93S
BISMARCK       SUNNY     75  54  48 W22G32    29.90S
GRAND FORKS    PTCLDY    75  57  54 W14G22    29.75S
FARGO          SUNNY     81  61  51 W20G25    29.79R HI  82
BUFFALO SD     SUNNY     75  45  34 W28G35    30.01S
RAPID CITY     SUNNY     79  46  31 N18G25    30.07S
$$

REGIONAL REPORTS...WYOMING/IDAHO/WASHINGTON
CITY           SKY/WX    TMP DP  RH WIND       PRES   REMARKS
GILLETTE       SUNNY     79  36  21 NW13      30.16F
SHERIDAN       SUNNY     79  36  21 NW13      30.16S
YELLOWSTONE LA SUNNY     61  30  31 E7        30.42R
SALMON         SUNNY     72  36  27 N6        30.19F
MULLAN PASS    SUNNY     61  37  41 CALM      30.32S
SAND POINT     SUNNY     70  46  42 E5        30.19S
SPOKANE        SUNNY     75  45  34 VRB7      30.17S

$$



USA.gov is the U.S. government's official web portal to all federal, state and local government web resources and services.